This demonstration page uses our WeatherBlox Daily Observations layout. Learn more.

Left ArrowRight Arrow

53.62937, 11.41316

Hourly Observations for May 21, 2016

Temp ( °F °C ) Dew Point ( °F °C ) Humidity (%) Winds ( mph kmh ) Pressure ( in mb ) Visibility ( mi km ) Precip ( " mm )
6:20 am 06:20 Partly Cloudy with Mist and Fog 54 12 54 12 100 100 S 6 9 30.00 1016 3 5 N/A
6:50 am 06:50 Mostly Sunny 55 13 54 12 94 94 S 5 7 30.00 1016 4 6 N/A
7:20 am 07:20 Mostly Sunny 55 13 54 12 94 94 SSW 6 9 30.00 1016 4 7 N/A
7:50 am 07:50 Mostly Sunny 57 14 54 12 88 88 SW 9 15 30.00 1016 6 9 N/A
8:20 am 08:20 Mostly Sunny 57 14 54 12 88 88 SW 8 13 30.03 1017 6 9 N/A
8:50 am 08:50 Mostly Cloudy 59 15 54 12 82 82 SSW 9 15 30.03 1017 30 48 N/A
9:20 am 09:20 Partly Cloudy 59 15 54 12 82 82 SSW 9 15 30.03 1017 30 48 N/A
9:50 am 09:50 Mostly Cloudy 61 16 54 12 77 77 SSW 9 15 30.03 1017 30 48 N/A
10:20 am 10:20 Partly Cloudy 64 18 55 13 73 73 SSW 10 17 30.03 1017 30 48 N/A
10:50 am 10:50 Partly Cloudy 64 18 54 12 68 68 SSW 10 17 30.03 1017 30 48 N/A
11:20 am 11:20 Mostly Cloudy 66 19 52 11 60 60 SSW 10 17 30.00 1016 30 48 N/A
11:50 am 11:50 Mostly Cloudy 68 20 52 11 56 56 SSW 7 11 30.00 1016 30 48 N/A
12:20 pm 12:20 Mostly Cloudy 68 20 50 10 53 53 SW 10 17 30.00 1016 30 48 N/A
12:50 pm 12:50 Mostly Cloudy 68 20 50 10 53 53 SSW 12 19 30.00 1016 30 48 N/A
1:20 pm 13:20 Mostly Sunny 70 21 52 11 53 53 SSW 12 19 30.00 1016 7 11 N/A
1:50 pm 13:50 Partly Cloudy 70 21 50 10 50 50 S 14 22 30.00 1016 30 48 N/A
2:20 pm 14:20 Mostly Sunny 70 21 50 10 50 50 SSW 13 20 30.00 1016 7 11 N/A
2:50 pm 14:50 Mostly Sunny 70 21 48 9 46 46 S 10 17 30.00 1016 7 11 N/A
3:20 pm 15:20 Mostly Sunny 70 21 46 8 43 43 S 13 20 30.00 1016 7 11 N/A
3:50 pm 15:50 Mostly Sunny 72 22 48 9 44 44 SSW 12 19 29.97 1015 7 11 N/A
4:20 pm 16:20 Mostly Sunny 73 23 48 9 41 41 S 10 17 29.97 1015 7 11 N/A
4:50 pm 16:50 Mostly Sunny 72 22 48 9 44 44 S 13 20 29.97 1015 7 11 N/A
5:20 pm 17:20 Mostly Sunny 73 23 46 8 38 38 SSW 12 19 29.97 1015 7 11 N/A
5:50 pm 17:50 Mostly Sunny 73 23 46 8 38 38 S 12 19 29.97 1015 7 11 N/A
6:20 pm 18:20 Mostly Sunny 73 23 46 8 38 38 S 10 17 29.97 1015 7 11 N/A
6:50 pm 18:50 Mostly Sunny 73 23 48 9 41 41 SSW 9 15 29.97 1015 7 11 N/A

Powered by AerisWeather